Location: Monroe
(41.3286°N, 74.1872°W)
Time: 03:54:22
(UTC+00:00)

ARIANE 6 FM1 Upper Stage - Pass Details

Date: 25 January 2026
Orbit: 522 x 609 km, 62.0° (Epoch: 10 February)

Event Time Altitude Azimuth Distance (km) Brightness Sun altitude
Rises 23:56:42 0° 244° (WSW) 2,709 7.4 -21.2°
Reaches altitude 10° 23:59:10 10° 256° (WSW) 1,804 6.4 -21.7°
Maximum altitude 00:02:40 27° 316° (NW) 1,042 4.4 -22.3°
Enters shadow 00:04:21 20° 355° (N) 1,256 4.4 -22.6°
